| time (UTC) | temp F | wind direction | speed MPH | gust MPH | rain 1hr in | rain 24hr in | rain mn in | humidity % | barometer mb |
| 20260504202016 | 59 | 293 | 1.0 | 2.0 | 0.00 | 0.00 | 0.00 | 80 | 1014.2 |
| 20260504201016 | 60 | 293 | 2.0 | 3.0 | 0.00 | 0.00 | 0.00 | 79 | 1014.2 |
| 20260504200036 | 60 | 293 | 1.0 | 3.0 | 0.00 | 0.00 | 0.00 | 78 | 1014.1 |
| 20260504195036 | 61 | 293 | 2.0 | 4.0 | 0.00 | 0.00 | 0.00 | 77 | 1014.0 |
| 20260504194015 | 60 | 315 | 1.0 | 3.0 | 0.00 | 0.00 | 0.00 | 75 | 1013.9 |
| 20260504193016 | 60 | 315 | 2.0 | 3.0 | 0.00 | 0.00 | 0.00 | 77 | 1013.8 |
| 20260504192015 | 61 | 293 | 2.0 | 4.0 | 0.00 | 0.00 | 0.00 | 76 | 1014.1 |
| 20260504191015 | 61 | 293 | 3.0 | 5.0 | 0.00 | 0.00 | 0.00 | 75 | 1014.2 |
| 20260504190015 | 61 | 270 | 3.0 | 4.0 | 0.00 | 0.00 | 0.00 | 74 | 1014.0 |
| 20260504185017 | 62 | 293 | 1.0 | 4.0 | 0.00 | 0.00 | 0.00 | 74 | 1013.9 |
| 20260504184016 | 62 | 293 | 3.0 | 8.0 | 0.00 | 0.00 | 0.00 | 73 | 1013.8 |
| 20260504183017 | 63 | 293 | 6.0 | 12.0 | 0.00 | 0.00 | 0.00 | 72 | 1013.5 |
| 20260504182016 | 63 | 315 | 6.0 | 13.0 | 0.00 | 0.00 | 0.00 | 71 | 1013.2 |
| 20260504181017 | 64 | 293 | 9.0 | 16.0 | 0.00 | 0.00 | 0.00 | 69 | 1013.4 |
| 20260504180017 | 65 | 315 | 8.0 | 15.0 | 0.00 | 0.00 | 0.00 | 67 | 1013.2 |
| 20260504175017 | 66 | 293 | 12.0 | 19.0 | 0.00 | 0.00 | 0.00 | 66 | 1013.0 |
| 20260504174016 | 68 | 293 | 8.0 | 15.0 | 0.00 | 0.00 | 0.00 | 62 | 1012.9 |
| 20260504173016 | 70 | 270 | 9.0 | 14.0 | 0.00 | 0.00 | 0.00 | 58 | 1012.7 |
| 20260504172016 | 70 | 270 | 3.0 | 7.0 | 0.00 | 0.00 | 0.00 | 56 | 1012.6 |
| 20260504171016 | 71 | 270 | 4.0 | 9.0 | 0.00 | 0.00 | 0.00 | 55 | 1012.5 |
| 20260504151016 | 73 | 180 | 4.0 | 7.0 | 0.00 | 0.00 | 0.00 | 52 | 1012.4 |
| 20260504141036 | 72 | 248 | 1.0 | 2.0 | 0.00 | 0.00 | 0.00 | 52 | 1013.1 |
| 20260504110515 | 70 | 270 | 3.0 | 4.0 | 0.00 | 0.00 | 0.00 | 59 | 1014.6 |